Temp
11 11 11 11 11 11 10 10 10 10 11 10 11 11 10 10 10 10 10 10 11 11 11 11 11 11 10 10 10 10 9 9 8 7 6 6 5 5 6 6 7 7 6 6 6 6 5 5 5 5 5 5 5 5 4 4 4 4 4 4 3 0 -1 0 -0 0 1 1 1 2 3 2 4 6 6 7 8 8 9 9 9 9 9 9 9
10 10 10 10 9 9 9 9 9 9 10 10 10 10 10 9 9 9 10 10 11 11 11 11 10 10 10 10 9 9 9 8 8 7 6 5 6 6 6 6 6 6 6 6 5 5 5 5 4 4 4 4 4 4 4 4 3 3 3 3 1 -0 -1 -0 0 -0 0 1 0 1 1 1 2 4 4 4 5 6 8 9 9 9 9 8 8
9 9 8 8 8 8 8 8 8 9 9 9 9 9 9 9 9 10 10 10 10 10 10 10 10 10 10 9 9 9 8 8 8 7 6 5 6 6 6 6 6 6 6 5 5 5 4 4 4 4 4 4 4 4 3 3 3 3 3 1 -0 -1 -1 -1 -0 0 -0 0 0 0 0 -0 1 2 2 2 2 3 5 8 9 9 9 8 8
8 8 7 7 7 7 7 7 7 8 8 8 9 9 9 9 9 10 10 10 10 10 10 9 9 9 9 9 9 8 7 7 7 7 6 6 6 6 6 5 5 5 5 5 5 4 4 3 3 3 4 4 4 3 3 3 3 2 1 -0 -1 -1 -1 -0 -0 0 0 0 0 0 0 0 0 0 1 1 2 3 4 6 7 8 8 8 8
7 7 7 7 7 7 7 7 7 8 8 8 9 9 9 9 9 9 9 10 10 9 9 9 9 9 9 8 8 7 7 6 6 6 6 6 6 6 5 5 5 5 5 5 4 4 3 3 3 3 3 3 3 3 3 3 2 2 0 -0 -1 -1 -1 -0 -0 -0 0 0 0 0 -0 -0 -0 -0 0 0 1 2 3 4 6 6 7 8 9
7 7 7 7 7 7 7 7 8 8 8 8 8 9 9 9 9 9 9 9 9 9 9 8 8 9 8 8 8 7 6 6 6 6 6 6 6 5 5 5 5 5 5 4 4 3 3 3 3 3 3 3 3 3 3 3 2 1 0 -0 -1 -0 -0 -0 -0 -0 -0 -0 -0 -0 -0 -0 -0 -0 0 0 0 1 2 3 5 6 6 7 8
7 7 7 7 7 7 7 7 8 8 8 8 8 8 8 8 8 8 8 8 8 8 8 8 8 8 8 8 8 7 6 6 6 6 6 6 5 5 5 5 5 4 4 4 4 3 3 3 3 2 2 2 2 2 2 2 2 1 -0 -0 -0 -0 -0 -0 -0 -0 -0 -1 -1 -1 -1 -0 -0 -0 0 0 -0 0 0 1 3 5 6 6 7
6 6 6 6 6 7 7 7 8 8 8 8 8 8 8 8 7 7 8 8 8 8 8 8 8 8 8 8 7 7 6 5 5 5 5 5 5 5 5 4 4 4 4 4 4 3 3 3 3 2 2 2 1 1 1 1 1 0 -0 -0 -0 -0 -0 -0 -0 -1 -1 -1 -1 -1 -1 -1 -1 -1 -1 -0 -0 -0 0 -0 1 2 4 5 6
6 6 6 6 6 6 7 7 8 8 8 8 8 8 8 7 7 7 7 8 8 7 7 7 7 7 7 7 7 6 5 5 5 5 5 5 5 4 4 4 3 3 3 3 3 3 3 3 3 2 2 2 1 1 1 1 1 0 0 0 0 -0 0 0 -0 -1 -1 -1 -1 -1 -1 -1 -1 -1 -1 -1 -1 -1 -0 -0 0 1 2 3 5
6 6 6 6 6 6 7 7 8 8 8 8 8 7 7 6 6 6 7 7 7 7 7 7 7 7 7 7 6 5 5 4 4 4 4 4 4 4 3 3 3 3 3 3 3 3 3 3 3 3 2 2 2 2 1 1 1 1 1 0 0 0 0 -0 -0 -0 -1 -1 -1 -1 -1 -1 -1 -1 -1 -1 -1 -1 -1 -0 -0 1 1 1 4
6 6 5 5 5 6 7 7 7 8 7 7 7 7 6 6 6 6 6 6 7 6 7 7 7 7 7 7 6 5 4 4 4 4 4 3 3 3 3 3 3 2 3 3 2 2 3 3 3 3 2 2 2 2 2 2 2 1 1 1 1 1 0 0 -0 -0 -1 -1 -1 -1 -1 -1 -1 -1 -1 -1 -1 -1 -1 -0 -0 0 1 1 2
6 5 5 5 5 6 7 7 7 7 7 7 6 6 6 6 5 5 5 6 6 6 6 6 6 7 7 6 5 5 4 4 3 3 3 3 3 3 3 3 3 3 3 3 2 2 2 2 2 2 2 2 2 2 2 2 2 2 1 1 1 1 1 0 0 -0 -0 -1 -1 -1 -1 -1 -1 -1 -1 -1 -1 -1 -1 -0 -0 0 1 1 1
5 5 5 5 5 6 7 7 7 6 6 6 6 6 6 6 6 5 5 6 6 6 6 6 6 6 6 6 5 5 4 4 3 3 3 3 3 3 3 3 3 3 3 3 2 2 2 2 2 2 2 2 2 2 2 2 2 2 2 1 1 1 1 1 1 0 -0 -0 -1 -1 -1 -1 -1 -1 -1 -2 -2 -1 -1 -1 0 0 0 1 1
5 5 5 5 6 6 6 6 6 6 6 6 6 6 6 6 6 6 6 6 6 6 5 6 6 6 6 6 5 5 4 4 3 3 3 3 3 3 3 3 3 3 3 3 2 2 1 2 2 2 2 2 2 2 2 2 2 2 2 1 1 1 1 1 1 0 0 -0 -1 -1 -1 -1 -1 -1 -1 -2 -2 -1 -1 -1 -0 -0 0 1 1
5 5 5 5 5 6 6 6 6 5 5 6 6 6 6 6 6 6 7 7 6 6 5 5 6 6 6 6 5 5 4 4 3 3 3 3 3 3 3 3 2 2 2 2 2 2 2 2 2 2 2 2 2 1 1 2 1 2 2 2 1 1 1 1 1 1 0 0 -0 -1 -1 -1 -1 -1 -1 -2 -2 -1 -1 -0 -0 -0 0 1 2
5 5 5 5 5 5 5 6 6 5 6 6 6 6 6 7 7 7 7 7 7 6 6 5 5 5 5 5 5 5 4 4 4 3 3 3 3 3 3 2 2 2 2 2 2 2 2 2 2 2 2 2 2 2 1 1 1 1 2 2 1 1 1 1 1 1 1 0 -0 -0 -1 -1 -1 -1 -1 -1 -1 -1 -0 1 1 1 0 1 1
5 5 5 5 5 5 5 6 6 6 6 6 6 6 7 7 7 7 7 7 7 6 6 5 5 5 5 5 5 5 5 4 4 4 4 4 4 4 3 3 2 2 2 2 2 2 2 2 2 2 2 2 2 2 1 1 1 1 1 1 1 1 1 1 1 1 1 0 0 -0 -0 -1 -1 -1 -1 -1 -1 -1 -0 0 0 -1 -1 -1 -1
5 5 5 5 5 5 6 6 6 6 6 6 7 7 7 7 7 6 6 6 6 6 5 5 5 5 5 5 5 5 5 5 5 5 4 4 4 4 4 3 3 2 2 2 2 3 3 3 2 2 2 2 2 2 1 1 1 1 1 1 1 1 1 1 1 1 1 1 0 0 -0 -1 -1 -1 -1 -1 -1 -1 -1 -1 -1 -1 -1 -1 -1
5 5 5 5 5 5 5 6 6 6 6 6 7 6 6 6 6 6 6 6 5 5 5 5 5 5 4 4 4 4 5 5 5 5 5 5 5 4 4 4 4 3 3 3 3 3 3 3 3 2 2 2 2 2 2 1 1 1 1 1 1 1 1 1 1 1 1 1 0 0 -0 -0 -1 -1 -1 -1 -1 -1 -1 -1 -1 -2 -1 -1 -2
5 5 5 5 5 5 5 6 6 6 6 6 6 6 6 6 5 5 5 5 5 5 5 5 5 4 4 4 4 4 4 4 5 5 5 5 4 4 4 4 4 4 4 4 4 4 4 3 3 2 2 2 2 2 2 1 1 1 1 1 1 1 1 1 1 1 1 1 0 0 0 -0 -1 -1 -1 -1 -1 -1 -1 -1 -1 -2 -2 -2 -2
5 5 5 5 5 5 5 6 6 6 6 6 6 6 6 5 5 5 5 5 5 5 5 5 4 4 4 4 4 4 4 4 5 5 5 5 4 4 4 4 4 4 4 4 4 4 4 4 3 3 2 2 2 2 2 2 2 2 1 1 1 1 1 1 1 1 1 1 0 0 0 0 -0 -1 -1 -1 -1 -1 -1 -1 -1 -2 -2 -2 -2
5 5 5 5 5 5 5 6 6 6 6 6 6 5 5 5 5 5 5 5 5 5 5 4 4 4 4 4 4 5 4 4 5 5 5 5 5 4 4 4 4 4 4 4 4 4 3 3 3 2 2 2 2 2 2 2 2 2 2 2 2 2 2 1 1 1 1 1 1 0 0 0 0 -0 -1 -1 -1 -1 -1 -1 -1 -2 -2 -2 -2
5 5 5 5 5 6 6 6 6 6 6 6 6 5 4 4 4 5 5 5 5 4 4 4 3 3 3 4 4 5 5 5 5 5 5 5 5 5 5 5 5 5 5 5 4 4 3 3 2 2 2 3 3 3 2 2 2 2 2 2 2 2 2 2 1 1 1 1 1 0 0 0 0 -0 -1 -1 -1 -1 -1 -1 -1 -1 -2 -2 -2
5 5 5 5 5 5 6 6 6 6 6 6 6 5 5 5 5 5 5 5 4 4 3 3 3 3 3 3 4 5 5 5 5 5 5 5 5 5 5 5 5 5 5 5 4 3 3 2 2 2 2 3 3 3 3 2 2 2 2 2 2 2 2 2 1 1 1 1 1 0 0 0 0 0 -0 -1 -1 -1 -1 -1 -1 -1 -1 -2 -2
5 5 5 5 5 5 6 6 6 6 6 6 6 6 6 5 5 5 5 4 4 4 4 3 3 3 3 3 4 5 5 5 5 5 5 5 5 5 6 5 5 5 5 4 4 3 3 3 3 3 3 3 3 3 3 3 3 3 2 2 2 2 2 1 1 1 1 1 1 0 0 0 0 0 0 -0 -0 -0 -0 -0 -0 -0 -1 -1 -1
5 5 5 5 5 6 6 5 5 6 6 6 6 6 5 5 5 4 4 4 4 4 4 4 4 3 3 3 4 4 5 5 5 5 5 5 5 6 6 5 5 5 5 4 4 3 3 3 3 3 3 3 3 3 3 3 3 3 3 2 2 2 2 1 1 1 0 1 1 0 1 1 0 0 0 0 0 -0 -0 -0 0 0 -0 -1 -1
5 5 5 5 5 6 6 6 5 5 5 5 5 5 5 5 4 4 4 4 4 4 4 4 4 3 3 4 4 4 4 5 5 5 5 5 5 6 5 5 5 5 5 4 4 3 3 3 3 3 3 3 3 3 3 3 3 3 3 3 2 2 2 2 1 1 0 0 1 0 1 1 1 1 0 0 0 0 0 -0 -0 -0 -0 -0 -0
5 5 5 5 5 6 6 5 5 5 5 5 5 5 4 4 4 4 4 4 4 4 4 4 4 3 4 5 5 5 5 5 5 5 5 5 6 6 5 5 5 5 5 4 4 3 3 3 3 3 3 4 4 4 4 3 3 3 3 3 2 2 3 2 2 1 1 0 1 1 1 1 1 1 0 0 0 0 0 0 -0 -0 -0 0 -0
5 5 5 5 5 5 5 5 5 5 5 5 4 4 4 4 4 4 4 4 4 4 4 4 4 4 4 5 5 5 5 5 5 5 6 6 6 6 5 5 5 5 5 4 4 3 3 3 3 3 4 4 4 4 4 4 3 3 3 3 2 2 2 2 2 2 1 1 1 1 1 1 1 1 1 0 0 0 0 0 0 0 -0 -0 -0
5 5 5 5 5 5 5 5 5 5 5 4 4 4 4 4 4 4 4 4 4 4 5 5 5 5 5 5 5 5 5 5 5 5 5 6 6 6 5 5 5 5 4 4 4 4 3 3 4 4 4 4 4 4 4 4 4 3 3 3 2 2 2 2 2 2 2 1 1 1 1 1 1 1 1 0 0 0 0 0 0 0 0 -0 -0
5 4 5 5 5 5 5 5 5 5 4 4 4 5 4 4 4 4 4 4 4 5 5 5 5 5 5 5 5 5 5 5 5 5 5 6 6 5 5 5 4 4 4 4 3 3 3 3 4 4 4 4 4 4 4 4 3 3 3 3 3 2 2 2 2 2 2 2 2 1 1 1 1 1 1 1 0 0 0 0 0 0 0 0 -0
5 5 5 5 5 5 5 5 4 4 4 4 5 5 5 5 4 4 4 4 4 5 5 5 5 5 5 5 5 5 5 5 5 5 5 5 5 5 5 4 4 4 4 4 3 3 3 3 4 4 4 4 4 4 4 3 3 3 3 3 3 3 2 2 2 2 2 2 2 1 1 1 1 1 1 1 1 0 0 0 0 0 0 0 0
5 5 5 5 5 5 5 4 4 4 5 5 5 5 5 5 5 5 5 5 5 5 5 5 5 5 5 5 5 5 5 6 5 5 5 5 5 4 4 4 4 3 3 3 3 3 3 3 3 4 4 4 4 4 4 3 3 3 3 3 3 3 3 2 2 2 2 2 2 2 1 1 1 1 1 1 1 1 0 0 0 0 0 0 0
5 5 5 5 5 4 4 4 4 5 5 5 5 5 5 5 5 5 5 5 5 5 5 5 5 5 5 5 5 5 6 6 5 5 5 5 4 4 4 4 4 3 3 3 3 3 3 3 3 4 4 4 4 4 4 3 3 3 3 3 3 3 3 3 3 2 2 2 2 2 2 2 1 1 1 1 1 1 1 0 0 0 0 0 0
5 5 5 5 4 4 4 5 5 5 5 5 5 5 5 5 5 5 5 5 5 5 5 5 5 5 5 5 5 5 5 5 5 5 5 5 5 4 4 4 4 3 3 3 3 3 3 3 3 3 4 4 4 4 4 3 3 3 3 3 3 3 3 3 3 2 2 2 3 2 2 2 2 1 1 1 1 1 1 1 0 0 -0 -0 0
5 5 5 4 4 4 4 5 5 6 6 5 5 5 5 5 5 5 5 5 5 5 5 5 5 5 5 5 5 5 5 5 5 5 5 5 4 4 4 4 4 4 3 3 3 3 3 3 3 3 4 3 3 3 4 3 3 3 3 3 3 3 3 3 3 3 2 2 2 3 2 2 2 2 1 1 1 1 1 1 1 0 0 -0 -0
5 5 5 4 4 4 5 5 6 6 5 5 5 5 5 5 5 5 4 5 5 4 4 4 5 5 5 5 5 5 5 5 5 5 5 5 4 4 4 4 4 3 3 3 3 3 3 3 3 3 4 4 3 3 3 3 3 3 3 3 3 3 3 3 3 3 3 2 2 2 2 2 2 2 2 2 1 1 1 1 1 1 0 0 -0
5 5 4 4 4 5 5 5 5 5 5 5 5 5 5 5 5 5 5 5 5 5 5 5 5 5 5 5 5 5 5 5 5 5 4 4 4 4 4 4 3 3 3 3 3 3 3 3 3 3 3 4 3 3 3 3 3 3 3 3 3 3 3 3 3 3 2 2 2 2 2 2 2 2 2 2 2 1 1 1 1 1 1 1 0
5 5 5 4 5 5 5 5 5 5 5 5 5 5 5 5 5 5 5 5 5 5 5 5 5 5 5 4 4 5 5 5 5 5 4 4 4 4 4 4 4 3 3 3 3 3 3 3 3 3 3 3 3 3 3 3 3 3 3 3 3 3 3 3 3 2 2 2 2 2 2 2 2 2 2 2 2 2 1 1 1 1 1 1 1
5 5 5 5 5 5 5 5 5 5 5 5 5 5 5 5 5 5 5 5 5 5 5 5 5 5 5 5 5 5 5 5 5 5 4 4 4 4 3 3 3 3 3 3 3 3 3 3 3 3 3 3 3 3 3 3 3 3 3 3 3 3 3 3 2 2 2 2 2 2 2 2 2 2 2 2 2 2 2 1 1 1 1 1 1
5 5 5 5 5 5 5 5 5 5 5 5 5 5 5 5 5 5 5 5 5 5 5 5 5 5 5 5 5 5 5 4 4 4 4 4 4 4 4 3 3 3 3 3 3 3 3 3 3 3 3 3 3 3 3 3 3 3 3 3 3 3 3 3 3 2 2 2 2 2 2 2 2 2 2 2 2 2 2 2 2 1 1 1 1
5 5 5 5 5 5 5 5 5 5 5 5 5 5 5 5 5 5 5 5 5 5 5 5 5 5 5 5 5 4 4 4 4 4 4 4 4 4 4 4 3 3 3 3 3 3 3 3 3 3 3 3 3 3 2 2 2 2 2 2 2 2 2 2 3 2 2 2 1 1 2 2 2 2 2 2 2 2 2 2 2 2 2 1 1
5 5 5 5 5 5 5 5 5 5 5 5 5 5 5 5 5 5 5 5 5 5 5 5 5 5 5 5 5 4 4 4 4 4 4 4 5 4 4 4 4 3 3 3 3 3 3 3 3 3 3 3 3 2 2 2 2 2 2 2 2 2 2 2 2 2 2 2 1 1 1 1 1 1 1 1 2 1 2 2 2 2 2 2 2
5 5 5 5 5 5 5 5 5 5 5 5 5 5 5 5 5 5 5 5 5 5 5 4 4 4 4 4 4 4 4 4 4 4 4 4 4 4 4 4 4 4 3 3 3 3 3 3 3 3 3 3 3 2 2 2 2 2 2 2 2 2 2 2 2 2 2 2 1 1 1 1 1 1 1 1 1 1 1 1 1 2 2 2 2
5 4 4 5 5 5 5 5 5 5 5 5 5 5 5 5 5 5 5 5 5 5 5 5 5 4 4 4 4 4 4 4 4 4 4 4 4 4 4 4 4 4 4 4 4 3 3 3 3 3 3 3 3 3 3 3 3 2 2 2 2 2 2 2 2 2 1 1 1 1 1 1 1 1 1 1 1 1 1 1 1 1 1 1 2
5 5 5 5 5 5 5 5 5 5 5 5 5 5 5 5 5 5 5 5 5 5 5 5 5 5 5 5 4 4 5 5 5 5 4 4 4 4 4 4 4 4 4 4 4 4 4 4 3 3 3 3 3 3 3 3 3 3 3 3 3 2 2 2 2 2 1 1 1 1 1 1 1 1 1 1 1 1 1 1 1 1 1 1 1
5 5 5 5 5 5 5 5 5 5 5 5 5 5 5 5 5 5 5 5 5 5 5 5 5 5 5 5 5 5 5 5 5 5 5 4 4 4 4 4 4 4 4 4 4 4 4 4 4 4 4 3 3 3 3 3 3 3 3 3 3 3 2 2 2 2 2 1 1 1 1 1 1 0 0 0 1 1 1 1 1 1 1 1 1
5 5 5 5 5 5 5 5 5 5 5 5 5 5 5 5 5 5 5 5 5 5 5 5 5 5 5 5 5 5 5 5 5 5 5 5 5 5 4 4 4 4 4 4 4 4 4 4 4 4 4 4 3 3 3 3 3 3 3 3 3 3 3 2 2 2 2 2 1 1 1 1 1 0 0 0 0 0 0 1 1 1 1 1 1
5 5 5 5 5 5 5 5 5 5 5 5 5 5 5 5 5 5 5 5 5 5 5 5 5 5 5 5 5 5 5 5 5 5 5 5 5 5 5 5 4 4 4 4 4 4 4 4 4 4 4 4 3 3 3 3 3 3 3 3 3 3 3 2 2 2 2 2 1 1 1 1 1 1 0 0 0 0 0 0 0 1 1 1 1
5 5 5 5 5 5 5 5 5 5 5 5 5 5 5 5 5 5 5 5 5 5 5 5 5 5 5 5 5 5 5 5 5 5 5 5 5 5 5 5 4 4 4 4 4 4 4 4 4 4 4 3 3 3 3 3 3 3 3 3 3 3 2 2 2 2 2 2 2 1 1 1 1 1 1 0 0 0 0 0 0 0 0 0 1
5 5 5 5 5 5 5 5 5 5 5 5 5 5 5 5 5 5 5 5 5 5 5 5 5 5 5 5 5 5 5 5 5 5 5 5 5 5 5 4 4 4 4 4 4 4 4 4 4 4 4 3 3 3 3 3 3 3 2 2 2 2 2 2 2 2 2 2 2 1 1 1 1 1 1 1 0 0 0 0 0 0 0 0 0
Height
1528 1529 1530 1531 1532 1533 1533 1534 1535 1536 1538 1539 1541 1543 1545 1546 1546 1547 1547 1547 1547 1547 1547 1547 1547 1547 1548 1548 1548 1548 1548 1547 1546 1546 1545 1545 1544 1543 1543 1542 1541 1540 1540 1539 1538 1536 1535 1534 1532 1531 1529 1527 1525 1523 1521 1519 1517 1515 1513 1511 1510 1509 1508 1507 1504 1499 1495 1494 1492 1488 1485 1482 1479 1477 1474 1471 1470 1469 1468 1467 1466 1464 1463 1461 1460
1528 1529 1530 1531 1532 1532 1533 1534 1536 1537 1538 1540 1542 1543 1545 1546 1546 1546 1546 1546 1546 1546 1546 1547 1547 1548 1548 1548 1548 1548 1548 1547 1547 1546 1545 1545 1544 1543 1543 1542 1542 1541 1540 1539 1538 1537 1535 1534 1532 1531 1529 1527 1525 1523 1520 1518 1516 1514 1512 1510 1509 1509 1508 1506 1503 1499 1495 1492 1490 1487 1485 1482 1478 1475 1472 1469 1466 1465 1463 1463 1462 1460 1458 1457 1456
1528 1529 1529 1531 1532 1533 1534 1535 1536 1537 1539 1541 1542 1544 1545 1545 1546 1546 1546 1546 1546 1546 1547 1547 1548 1548 1548 1549 1549 1549 1548 1548 1548 1546 1545 1545 1544 1544 1544 1543 1542 1541 1540 1539 1538 1537 1535 1534 1532 1530 1529 1527 1524 1522 1520 1517 1516 1514 1512 1511 1509 1508 1507 1505 1502 1499 1495 1491 1489 1486 1483 1481 1478 1474 1471 1468 1465 1462 1459 1458 1457 1455 1454 1453 1451
1528 1529 1530 1531 1532 1533 1534 1535 1537 1538 1539 1541 1542 1543 1544 1545 1545 1546 1546 1546 1546 1546 1547 1547 1548 1548 1549 1549 1549 1549 1549 1549 1548 1547 1545 1545 1545 1545 1545 1544 1543 1542 1540 1539 1538 1536 1535 1534 1532 1530 1528 1526 1524 1522 1520 1517 1515 1513 1511 1510 1509 1507 1505 1504 1502 1499 1494 1491 1489 1486 1483 1480 1477 1473 1469 1465 1462 1459 1456 1453 1451 1450 1449 1447 1446
1528 1529 1530 1531 1532 1533 1534 1536 1537 1538 1540 1541 1542 1543 1544 1544 1545 1545 1545 1546 1546 1547 1547 1548 1548 1549 1549 1549 1550 1549 1550 1549 1548 1547 1546 1546 1546 1546 1546 1545 1544 1542 1541 1540 1538 1537 1535 1534 1533 1530 1528 1526 1524 1522 1520 1518 1515 1513 1511 1510 1508 1507 1505 1503 1500 1498 1494 1491 1488 1485 1482 1479 1476 1472 1469 1464 1459 1455 1452 1449 1447 1445 1443 1442 1441
1528 1529 1530 1531 1532 1533 1535 1536 1537 1539 1540 1541 1542 1543 1543 1544 1545 1545 1546 1546 1546 1547 1548 1548 1549 1549 1550 1550 1550 1550 1550 1549 1549 1548 1547 1547 1547 1547 1547 1546 1544 1543 1541 1540 1539 1537 1536 1535 1533 1531 1528 1526 1525 1523 1521 1518 1516 1513 1511 1509 1508 1506 1504 1501 1499 1496 1494 1491 1487 1483 1480 1477 1473 1470 1467 1464 1459 1453 1448 1444 1441 1441 1439 1436 1435
1527 1529 1530 1530 1532 1533 1534 1536 1537 1539 1540 1541 1542 1543 1544 1544 1545 1545 1546 1546 1547 1548 1548 1549 1549 1550 1550 1550 1550 1550 1550 1550 1549 1549 1548 1548 1548 1548 1547 1546 1545 1543 1542 1541 1540 1538 1537 1536 1534 1531 1530 1528 1526 1524 1522 1519 1517 1514 1512 1510 1509 1506 1503 1501 1498 1495 1492 1489 1485 1482 1478 1475 1471 1467 1464 1461 1458 1454 1449 1442 1436 1434 1434 1432 1430
1527 1529 1530 1530 1532 1533 1534 1536 1537 1539 1540 1540 1542 1542 1543 1544 1545 1545 1546 1546 1547 1548 1549 1549 1550 1550 1550 1550 1550 1550 1550 1550 1549 1549 1549 1549 1548 1548 1548 1546 1545 1544 1543 1542 1541 1539 1538 1537 1535 1533 1531 1530 1528 1526 1523 1521 1518 1516 1514 1512 1509 1507 1504 1501 1498 1494 1491 1488 1484 1481 1477 1473 1469 1465 1461 1458 1454 1451 1449 1444 1437 1431 1428 1426 1425
1527 1529 1529 1530 1532 1533 1534 1536 1537 1538 1539 1540 1541 1542 1543 1544 1545 1545 1546 1547 1548 1549 1549 1550 1550 1550 1551 1550 1550 1551 1550 1550 1550 1549 1550 1549 1549 1549 1548 1547 1546 1544 1544 1543 1541 1541 1539 1538 1536 1535 1533 1532 1530 1528 1525 1522 1519 1517 1515 1513 1510 1508 1505 1502 1498 1495 1491 1488 1484 1480 1476 1472 1467 1463 1459 1456 1453 1449 1446 1443 1437 1431 1427 1422 1419
1526 1528 1529 1530 1532 1533 1534 1535 1537 1538 1539 1540 1541 1542 1543 1544 1545 1546 1546 1548 1549 1549 1550 1550 1551 1551 1551 1551 1551 1551 1551 1550 1550 1550 1550 1550 1550 1549 1548 1547 1546 1545 1544 1543 1542 1541 1540 1539 1537 1536 1535 1533 1531 1529 1527 1524 1521 1519 1516 1514 1512 1509 1506 1502 1499 1496 1492 1488 1485 1480 1476 1471 1467 1463 1458 1454 1452 1448 1444 1441 1435 1430 1425 1419 1413
1525 1528 1529 1531 1532 1533 1534 1535 1537 1538 1539 1540 1541 1542 1544 1545 1546 1546 1547 1548 1549 1550 1550 1551 1551 1551 1551 1551 1551 1551 1551 1551 1551 1551 1551 1551 1550 1549 1549 1548 1547 1546 1545 1544 1543 1542 1541 1539 1538 1536 1535 1533 1532 1530 1528 1525 1523 1520 1518 1516 1513 1510 1507 1503 1500 1496 1493 1490 1486 1481 1476 1472 1467 1463 1458 1453 1449 1445 1442 1438 1434 1428 1424 1419 1412
1525 1527 1529 1531 1532 1532 1534 1535 1536 1538 1539 1540 1541 1542 1544 1545 1546 1547 1547 1548 1549 1550 1551 1551 1551 1551 1551 1551 1551 1551 1551 1552 1552 1552 1552 1551 1551 1550 1550 1549 1548 1547 1546 1544 1543 1542 1541 1540 1538 1537 1535 1534 1532 1530 1528 1526 1524 1522 1519 1516 1514 1512 1509 1506 1502 1498 1494 1490 1486 1482 1477 1472 1467 1462 1457 1452 1446 1442 1439 1435 1432 1427 1423 1419 1414
1525 1527 1529 1531 1531 1532 1534 1535 1536 1538 1539 1540 1542 1543 1544 1545 1546 1547 1548 1548 1550 1550 1551 1551 1552 1552 1552 1552 1552 1552 1552 1552 1553 1553 1552 1552 1552 1551 1550 1550 1548 1547 1546 1545 1544 1543 1542 1541 1539 1537 1536 1534 1532 1530 1528 1526 1524 1522 1520 1517 1515 1513 1510 1508 1505 1501 1496 1492 1487 1482 1477 1472 1466 1461 1457 1451 1445 1440 1436 1432 1429 1425 1420 1416 1412
1525 1527 1529 1530 1531 1532 1534 1535 1536 1538 1539 1540 1541 1543 1544 1545 1546 1547 1548 1549 1550 1551 1551 1552 1552 1553 1553 1553 1553 1553 1553 1553 1553 1553 1553 1552 1552 1551 1551 1550 1549 1547 1546 1545 1544 1543 1542 1541 1540 1538 1536 1534 1532 1531 1529 1527 1524 1522 1520 1517 1515 1512 1510 1508 1505 1501 1497 1493 1488 1483 1478 1473 1467 1461 1456 1451 1445 1440 1435 1430 1426 1422 1417 1412 1408
1525 1527 1529 1530 1531 1532 1533 1534 1536 1537 1539 1540 1542 1543 1544 1545 1546 1547 1548 1549 1550 1550 1552 1553 1553 1553 1554 1554 1554 1553 1553 1553 1553 1553 1553 1553 1552 1551 1550 1550 1548 1548 1547 1546 1545 1544 1543 1542 1540 1539 1537 1535 1533 1531 1529 1527 1525 1522 1520 1518 1515 1513 1510 1508 1505 1501 1497 1493 1489 1484 1478 1473 1467 1461 1455 1449 1444 1439 1435 1430 1425 1419 1413 1407 1402
1524 1526 1528 1530 1531 1532 1533 1534 1535 1537 1538 1540 1541 1543 1544 1545 1546 1547 1548 1549 1550 1551 1552 1553 1554 1554 1554 1555 1554 1554 1553 1554 1554 1553 1553 1553 1552 1551 1550 1549 1549 1548 1547 1546 1545 1544 1543 1542 1541 1539 1538 1536 1534 1532 1530 1528 1526 1523 1520 1518 1515 1513 1511 1508 1505 1501 1497 1493 1489 1484 1479 1473 1467 1461 1455 1449 1443 1437 1432 1428 1423 1417 1411 1404 1398
1524 1526 1527 1529 1530 1532 1533 1534 1535 1536 1538 1540 1541 1542 1544 1545 1546 1547 1548 1549 1550 1552 1553 1554 1554 1555 1555 1555 1555 1554 1554 1554 1554 1554 1554 1553 1552 1551 1550 1550 1549 1548 1548 1547 1546 1545 1544 1543 1541 1540 1538 1536 1535 1533 1531 1529 1526 1523 1521 1518 1515 1513 1510 1508 1505 1501 1497 1493 1489 1484 1478 1472 1466 1460 1454 1448 1442 1436 1430 1424 1419 1415 1410 1404 1397
1524 1526 1527 1528 1530 1531 1533 1534 1535 1536 1538 1539 1541 1542 1543 1545 1546 1547 1549 1550 1551 1552 1553 1554 1555 1556 1556 1556 1556 1555 1554 1554 1554 1554 1554 1553 1553 1551 1551 1550 1550 1549 1548 1548 1547 1546 1545 1543 1542 1540 1539 1537 1536 1534 1532 1529 1527 1524 1521 1518 1515 1512 1510 1507 1503 1500 1496 1492 1488 1483 1477 1471 1465 1459 1453 1447 1441 1435 1430 1425 1420 1415 1411 1406 1399
1524 1526 1527 1528 1530 1531 1532 1534 1535 1536 1538 1539 1541 1542 1543 1545 1546 1548 1549 1550 1551 1553 1554 1555 1555 1556 1556 1556 1556 1555 1555 1554 1554 1554 1553 1553 1552 1552 1551 1551 1550 1549 1548 1548 1547 1546 1545 1544 1542 1541 1539 1538 1536 1534 1532 1530 1527 1524 1522 1518 1515 1512 1510 1507 1503 1499 1495 1490 1486 1481 1476 1471 1465 1459 1453 1447 1441 1436 1431 1427 1422 1417 1412 1407 1401
1524 1526 1527 1528 1529 1530 1532 1533 1535 1537 1538 1540 1541 1542 1543 1545 1546 1548 1549 1551 1552 1553 1554 1555 1556 1556 1556 1556 1556 1556 1555 1555 1555 1554 1553 1553 1552 1552 1552 1551 1550 1550 1549 1548 1547 1546 1545 1544 1543 1541 1540 1539 1537 1535 1533 1530 1528 1525 1522 1519 1516 1513 1511 1507 1504 1500 1495 1491 1486 1481 1476 1471 1466 1459 1453 1447 1442 1437 1432 1428 1423 1418 1414 1408 1401
1523 1525 1526 1528 1529 1530 1532 1533 1535 1537 1539 1540 1541 1543 1544 1545 1546 1548 1549 1551 1552 1553 1554 1555 1556 1556 1556 1556 1556 1555 1555 1555 1555 1554 1554 1553 1553 1553 1552 1551 1551 1550 1549 1548 1547 1547 1546 1544 1543 1542 1541 1539 1537 1535 1533 1531 1528 1526 1523 1520 1518 1515 1512 1508 1504 1500 1496 1492 1487 1482 1477 1472 1466 1460 1454 1448 1443 1438 1434 1429 1424 1419 1415 1409 1402
1522 1524 1526 1527 1528 1530 1532 1534 1535 1537 1539 1540 1541 1542 1544 1545 1547 1548 1550 1551 1552 1554 1554 1555 1556 1556 1556 1556 1556 1555 1555 1555 1554 1554 1554 1554 1553 1553 1552 1552 1551 1551 1550 1549 1548 1547 1546 1545 1544 1543 1541 1540 1538 1536 1534 1532 1529 1526 1524 1522 1519 1516 1513 1509 1505 1501 1497 1492 1488 1483 1478 1473 1467 1461 1456 1450 1445 1441 1435 1431 1426 1421 1416 1411 1406
1521 1523 1525 1527 1528 1530 1532 1533 1535 1537 1539 1540 1541 1542 1543 1545 1547 1549 1550 1551 1552 1553 1554 1555 1555 1555 1556 1556 1555 1555 1555 1555 1554 1554 1554 1554 1553 1553 1552 1552 1551 1551 1550 1549 1548 1548 1547 1546 1545 1543 1542 1541 1539 1537 1535 1532 1530 1527 1525 1522 1519 1516 1513 1510 1505 1501 1497 1493 1489 1484 1480 1475 1470 1464 1459 1453 1448 1444 1438 1433 1428 1423 1417 1412 1407
1521 1523 1525 1526 1528 1530 1532 1533 1535 1537 1538 1540 1541 1542 1543 1545 1547 1549 1551 1552 1553 1553 1554 1555 1555 1555 1555 1555 1555 1555 1555 1555 1555 1555 1554 1554 1554 1554 1553 1552 1552 1551 1551 1550 1549 1548 1547 1547 1545 1544 1543 1541 1539 1537 1535 1533 1531 1528 1525 1522 1520 1517 1513 1510 1506 1502 1499 1494 1490 1486 1482 1478 1473 1469 1464 1459 1453 1448 1443 1437 1431 1426 1420 1415 1409
1520 1522 1524 1526 1527 1529 1531 1533 1535 1537 1538 1540 1541 1542 1544 1545 1547 1549 1551 1552 1553 1553 1554 1555 1555 1555 1555 1555 1555 1555 1555 1555 1555 1555 1555 1555 1555 1554 1553 1552 1552 1552 1551 1550 1550 1549 1548 1547 1546 1545 1543 1542 1540 1538 1536 1534 1531 1529 1526 1523 1520 1517 1514 1510 1507 1503 1500 1496 1493 1489 1485 1481 1478 1474 1469 1464 1458 1451 1445 1439 1434 1428 1423 1418 1413
1519 1521 1523 1525 1527 1529 1531 1533 1535 1537 1538 1540 1541 1543 1544 1546 1547 1549 1550 1552 1553 1554 1554 1555 1555 1555 1555 1555 1555 1555 1555 1555 1555 1555 1555 1555 1555 1554 1554 1553 1552 1552 1552 1551 1550 1549 1549 1547 1546 1545 1544 1542 1540 1538 1536 1534 1532 1530 1527 1524 1521 1518 1514 1511 1508 1505 1502 1499 1496 1492 1489 1485 1481 1477 1473 1467 1461 1455 1449 1443 1437 1432 1426 1421 1416
1517 1520 1522 1524 1526 1529 1531 1533 1535 1537 1539 1540 1541 1543 1544 1545 1547 1548 1550 1551 1552 1553 1554 1555 1555 1555 1554 1554 1555 1555 1555 1555 1555 1555 1555 1555 1555 1554 1554 1553 1553 1553 1552 1551 1550 1550 1549 1547 1546 1545 1544 1543 1541 1539 1537 1535 1532 1530 1527 1525 1522 1519 1516 1514 1511 1508 1505 1502 1499 1496 1492 1488 1483 1479 1475 1470 1465 1460 1455 1449 1443 1437 1432 1427 1421
1517 1519 1522 1524 1526 1528 1531 1533 1534 1536 1538 1539 1541 1542 1543 1545 1547 1548 1549 1551 1551 1552 1553 1553 1554 1554 1553 1554 1555 1555 1555 1555 1555 1555 1555 1555 1555 1555 1554 1554 1554 1553 1552 1551 1550 1550 1549 1548 1547 1546 1544 1543 1541 1539 1537 1535 1533 1530 1528 1525 1523 1521 1518 1516 1513 1509 1507 1504 1501 1498 1494 1490 1485 1481 1477 1473 1469 1465 1460 1455 1449 1444 1439 1433 1427
1517 1519 1521 1523 1526 1528 1530 1532 1534 1535 1536 1538 1539 1541 1544 1545 1546 1548 1549 1550 1551 1551 1552 1553 1553 1553 1553 1554 1555 1555 1555 1555 1555 1555 1555 1555 1555 1555 1554 1554 1554 1553 1552 1551 1550 1550 1549 1548 1546 1545 1544 1542 1540 1538 1537 1535 1533 1531 1529 1526 1524 1522 1519 1516 1513 1511 1508 1505 1502 1499 1496 1492 1488 1484 1480 1477 1473 1470 1465 1460 1455 1451 1445 1439 1434
1516 1518 1520 1523 1525 1527 1529 1531 1533 1534 1535 1536 1538 1540 1542 1545 1546 1547 1548 1549 1550 1551 1552 1553 1553 1554 1554 1554 1554 1555 1555 1555 1555 1555 1555 1555 1555 1555 1555 1554 1554 1553 1552 1551 1551 1550 1549 1547 1546 1545 1543 1542 1540 1538 1537 1535 1533 1531 1529 1527 1525 1522 1520 1517 1515 1513 1510 1507 1504 1501 1498 1494 1491 1487 1483 1480 1477 1473 1470 1465 1461 1457 1452 1447 1443
1514 1517 1519 1522 1524 1526 1528 1530 1532 1533 1535 1536 1538 1539 1541 1543 1545 1547 1548 1549 1549 1550 1551 1552 1553 1553 1554 1554 1554 1554 1555 1555 1555 1555 1555 1555 1555 1555 1554 1554 1553 1553 1553 1552 1551 1550 1549 1548 1547 1545 1544 1543 1541 1539 1538 1536 1534 1532 1530 1528 1526 1523 1521 1518 1516 1514 1512 1509 1506 1503 1500 1497 1494 1490 1487 1484 1481 1477 1474 1470 1466 1462 1458 1454 1451
1513 1515 1518 1521 1524 1525 1527 1529 1530 1532 1534 1536 1537 1539 1540 1542 1543 1545 1547 1548 1549 1550 1550 1551 1552 1552 1553 1553 1554 1554 1554 1554 1554 1555 1555 1555 1555 1554 1554 1554 1553 1553 1552 1552 1551 1550 1549 1548 1547 1546 1544 1543 1541 1540 1538 1537 1535 1533 1531 1529 1527 1524 1522 1520 1517 1516 1513 1510 1507 1504 1502 1499 1496 1494 1491 1488 1484 1481 1477 1474 1470 1467 1463 1460 1457
1512 1514 1518 1521 1523 1525 1526 1528 1530 1531 1533 1535 1537 1538 1540 1541 1543 1544 1545 1547 1548 1549 1550 1550 1551 1552 1552 1553 1553 1553 1554 1554 1554 1554 1554 1554 1554 1554 1554 1554 1553 1553 1552 1551 1551 1550 1549 1548 1547 1546 1545 1543 1542 1540 1539 1537 1536 1534 1532 1530 1528 1526 1524 1522 1519 1517 1514 1511 1509 1506 1504 1501 1499 1496 1494 1491 1487 1484 1481 1477 1475 1472 1469 1465 1462
1512 1514 1518 1520 1522 1523 1525 1527 1529 1531 1533 1534 1536 1537 1539 1541 1542 1544 1545 1546 1547 1548 1549 1550 1550 1551 1552 1552 1553 1553 1553 1553 1553 1553 1554 1554 1554 1554 1554 1553 1553 1552 1552 1551 1551 1550 1549 1548 1547 1546 1545 1544 1542 1541 1539 1538 1536 1535 1533 1531 1529 1527 1525 1523 1521 1518 1516 1513 1510 1508 1505 1503 1500 1498 1495 1493 1490 1488 1485 1481 1479 1476 1473 1471 1468
1512 1515 1518 1520 1521 1523 1524 1526 1529 1530 1532 1534 1536 1537 1539 1541 1542 1544 1545 1546 1547 1548 1548 1549 1550 1551 1551 1552 1552 1552 1553 1553 1553 1553 1553 1553 1553 1553 1553 1553 1552 1552 1551 1550 1550 1550 1549 1548 1547 1546 1545 1544 1542 1541 1540 1538 1537 1535 1533 1532 1530 1528 1526 1524 1521 1519 1517 1515 1512 1509 1507 1504 1502 1500 1498 1495 1493 1490 1488 1485 1483 1480 1478 1476 1473
1512 1515 1518 1520 1521 1522 1524 1526 1528 1530 1532 1533 1536 1537 1539 1540 1542 1543 1545 1546 1547 1547 1548 1549 1549 1550 1551 1551 1552 1552 1552 1552 1552 1552 1553 1553 1553 1553 1552 1552 1552 1551 1550 1550 1550 1549 1548 1547 1546 1545 1544 1544 1542 1541 1540 1538 1537 1535 1534 1532 1530 1528 1526 1524 1522 1520 1518 1516 1514 1511 1508 1506 1503 1501 1499 1497 1495 1493 1491 1489 1487 1484 1482 1480 1477
1511 1514 1517 1519 1520 1522 1524 1527 1528 1530 1532 1534 1535 1537 1539 1540 1542 1543 1544 1545 1546 1547 1547 1548 1549 1549 1550 1550 1551 1551 1551 1551 1552 1552 1552 1552 1552 1552 1552 1551 1551 1550 1550 1549 1549 1549 1548 1547 1546 1545 1544 1543 1542 1541 1540 1538 1537 1535 1534 1532 1530 1529 1527 1525 1523 1521 1519 1517 1515 1513 1510 1508 1505 1503 1501 1499 1497 1495 1493 1492 1490 1488 1485 1483 1481
1511 1513 1516 1518 1520 1522 1524 1526 1528 1530 1532 1533 1534 1536 1538 1539 1541 1542 1543 1544 1545 1546 1547 1547 1548 1549 1549 1549 1550 1550 1550 1551 1551 1551 1551 1551 1551 1551 1551 1550 1550 1549 1549 1549 1548 1548 1547 1546 1545 1545 1544 1543 1542 1541 1539 1538 1537 1535 1534 1532 1531 1529 1527 1526 1524 1522 1520 1518 1516 1514 1512 1509 1507 1505 1502 1501 1499 1497 1495 1493 1492 1490 1488 1486 1484
1511 1513 1516 1518 1520 1522 1523 1525 1527 1529 1531 1532 1533 1535 1537 1538 1540 1541 1542 1543 1544 1545 1546 1546 1547 1548 1548 1548 1549 1549 1549 1550 1550 1550 1550 1550 1550 1550 1550 1549 1549 1549 1548 1548 1548 1547 1546 1546 1545 1544 1543 1542 1541 1540 1539 1537 1536 1535 1533 1532 1530 1529 1527 1526 1524 1522 1520 1518 1516 1514 1513 1511 1509 1506 1504 1502 1500 1498 1496 1495 1493 1492 1490 1488 1486
1510 1513 1515 1517 1519 1521 1523 1525 1527 1529 1530 1532 1533 1535 1536 1538 1539 1540 1541 1543 1543 1544 1544 1545 1546 1546 1547 1547 1547 1547 1548 1548 1549 1549 1549 1549 1549 1548 1548 1548 1548 1548 1547 1547 1547 1546 1545 1545 1544 1543 1542 1541 1540 1539 1538 1537 1535 1534 1532 1531 1530 1528 1527 1525 1524 1522 1520 1519 1517 1515 1513 1511 1509 1508 1506 1504 1502 1500 1498 1496 1495 1493 1492 1490 1489
1510 1513 1515 1517 1519 1521 1523 1525 1526 1528 1530 1531 1533 1534 1535 1537 1538 1540 1541 1542 1543 1543 1544 1544 1545 1545 1545 1546 1546 1546 1547 1547 1547 1547 1547 1547 1547 1547 1546 1546 1547 1546 1546 1546 1546 1545 1544 1544 1543 1542 1541 1540 1539 1538 1537 1535 1534 1533 1532 1530 1529 1527 1526 1525 1523 1522 1520 1519 1517 1516 1514 1512 1510 1508 1506 1505 1503 1501 1500 1498 1496 1495 1493 1492 1491
1510 1512 1514 1516 1518 1520 1522 1524 1526 1527 1529 1531 1532 1533 1534 1536 1537 1539 1540 1540 1542 1542 1543 1543 1544 1544 1544 1544 1545 1545 1545 1545 1546 1546 1546 1546 1546 1545 1545 1545 1545 1545 1545 1545 1544 1544 1543 1542 1542 1541 1540 1539 1538 1537 1536 1534 1533 1532 1530 1529 1528 1526 1525 1524 1522 1521 1520 1518 1517 1515 1514 1512 1511 1509 1507 1505 1504 1502 1500 1499 1497 1496 1494 1493 1491
1510 1512 1513 1515 1517 1519 1521 1523 1525 1527 1529 1530 1531 1532 1534 1535 1536 1537 1538 1539 1540 1541 1541 1542 1542 1542 1543 1543 1543 1543 1544 1544 1544 1545 1544 1544 1544 1543 1543 1544 1544 1544 1544 1543 1543 1542 1542 1541 1540 1539 1538 1537 1537 1536 1534 1533 1532 1530 1529 1528 1526 1525 1524 1522 1521 1520 1519 1517 1516 1515 1513 1512 1510 1509 1507 1506 1504 1502 1501 1499 1498 1496 1495 1493 1492
1511 1512 1514 1515 1517 1518 1520 1522 1524 1525 1528 1530 1531 1532 1533 1534 1535 1536 1537 1538 1539 1539 1540 1541 1541 1541 1541 1541 1541 1541 1542 1543 1543 1543 1543 1543 1542 1542 1542 1542 1542 1542 1542 1542 1541 1541 1540 1539 1538 1537 1536 1536 1535 1534 1533 1532 1530 1529 1528 1526 1525 1524 1522 1521 1520 1518 1517 1516 1515 1514 1513 1511 1510 1508 1507 1505 1504 1502 1501 1499 1498 1496 1495 1494 1492
1512 1513 1514 1515 1517 1518 1519 1521 1523 1524 1526 1529 1530 1531 1532 1533 1534 1535 1535 1536 1537 1538 1538 1539 1539 1539 1539 1540 1540 1540 1541 1541 1541 1541 1541 1541 1541 1541 1541 1540 1540 1540 1540 1540 1539 1539 1538 1537 1536 1535 1534 1533 1533 1532 1531 1530 1529 1528 1526 1525 1524 1522 1521 1520 1518 1517 1516 1514 1513 1512 1511 1510 1509 1507 1506 1505 1503 1502 1500 1499 1498 1496 1495 1494 1492
1513 1514 1515 1516 1517 1517 1518 1520 1522 1523 1525 1527 1528 1530 1531 1532 1533 1533 1534 1535 1535 1536 1537 1537 1538 1538 1538 1538 1538 1538 1539 1539 1539 1539 1539 1539 1539 1539 1539 1538 1538 1538 1538 1538 1537 1536 1535 1534 1533 1533 1532 1531 1530 1529 1528 1528 1527 1526 1525 1523 1522 1521 1519 1518 1517 1515 1514 1513 1512 1510 1509 1508 1507 1506 1505 1503 1502 1501 1500 1498 1497 1496 1494 1493 1492
1512 1514 1515 1516 1517 1517 1518 1519 1521 1523 1524 1526 1527 1528 1530 1531 1531 1532 1533 1533 1534 1534 1535 1535 1535 1536 1536 1536 1536 1536 1537 1537 1537 1537 1537 1537 1537 1536 1537 1537 1537 1536 1536 1535 1534 1533 1532 1531 1530 1530 1529 1528 1527 1527 1526 1525 1524 1523 1522 1521 1520 1519 1517 1516 1515 1514 1512 1511 1510 1508 1507 1506 1505 1504 1503 1502 1500 1499 1498 1497 1496 1495 1494 1492 1491
1511 1513 1514 1515 1516 1517 1517 1518 1520 1521 1523 1524 1525 1527 1528 1529 1530 1530 1531 1531 1532 1532 1533 1533 1534 1534 1534 1534 1534 1534 1534 1535 1535 1535 1535 1535 1534 1535 1535 1534 1534 1533 1533 1532 1531 1530 1529 1529 1528 1527 1526 1525 1525 1524 1523 1522 1522 1521 1520 1519 1517 1516 1515 1514 1512 1511 1510 1509 1508 1506 1505 1504 1503 1502 1500 1499 1498 1497 1496 1495 1494 1493 1492 1491 1490
1510 1512 1513 1514 1514 1515 1516 1518 1519 1520 1521 1522 1524 1525 1526 1527 1528 1528 1529 1529 1530 1530 1531 1531 1532 1532 1532 1532 1532 1532 1533 1533 1533 1532 1532 1532 1533 1533 1532 1532 1531 1531 1530 1529 1529 1528 1527 1527 1526 1525 1524 1523 1522 1521 1520 1519 1518 1518 1517 1516 1515 1513 1512 1511 1510 1509 1508 1506 1505 1504 1503 1501 1500 1499 1498 1497 1496 1495 1494 1493 1492 1491 1490 1489 1488
1510 1511 1512 1512 1513 1514 1516 1517 1518 1519 1520 1521 1522 1523 1524 1525 1526 1526 1527 1527 1528 1528 1529 1529 1529 1530 1530 1530 1530 1530 1531 1531 1530 1530 1531 1531 1531 1530 1530 1530 1529 1529 1528 1527 1527 1526 1526 1525 1524 1523 1521 1520 1519 1518 1517 1516 1515 1514 1513 1512 1511 1510 1509 1508 1507 1506 1505 1504 1503 1501 1500 1499 1498 1496 1495 1494 1493 1492 1491 1490 1489 1488 1487 1486 1486
1509 1510 1511 1511 1512 1513 1515 1516 1517 1518 1519 1520 1521 1522 1523 1523 1524 1525 1525 1526 1526 1526 1527 1527 1527 1528 1528 1528 1528 1528 1528 1528 1528 1528 1528 1528 1528 1528 1528 1527 1527 1526 1526 1525 1524 1524 1523 1522 1521 1520 1518 1517 1516 1515 1514 1513 1511 1510 1509 1508 1507 1506 1506 1505 1504 1503 1502 1501 1500 1499 1497 1496 1495 1494 1492 1491 1490 1489 1488 1487 1486 1485 1484 1483 1482
Wind_Speed
18 17 17 16 17 18 18 17 16 15 16 16 16 16 16 16 16 15 13 11 9 8 6 5 4 3 3 4 4 4 5 6 7 8 10 10 9 8 9 11 12 13 15 16 18 19 21 23 24 24 24 25 25 24 24 24 24 24 25 25 23 21 21 21 23 28 30 31 32 33 34 35 33 30 30 29 25 21 20 20 21 22 22 23 24
18 16 16 17 18 19 19 19 18 17 18 18 18 18 18 17 16 14 13 11 9 7 6 5 4 4 4 4 5 5 6 7 8 9 11 10 10 11 12 14 15 17 18 19 20 21 23 25 26 26 26 26 26 26 26 26 25 25 25 25 24 23 23 24 25 27 30 32 33 33 34 35 35 33 34 34 33 30 26 21 21 22 22 22 23
19 18 19 19 19 19 19 19 19 19 19 19 18 19 18 17 15 13 11 10 9 7 6 5 5 4 4 5 6 7 7 7 8 10 12 11 11 13 14 16 18 19 19 20 21 23 26 28 28 28 28 28 29 29 28 27 26 25 25 24 23 24 24 25 27 28 30 32 33 34 35 36 35 34 35 35 35 34 31 26 23 23 24 23 24
21 21 20 20 19 19 19 19 20 20 21 20 20 19 18 16 14 12 11 10 9 8 7 6 6 5 6 7 8 9 9 8 8 10 13 13 13 15 17 19 20 20 22 23 24 26 29 29 29 28 29 31 31 30 29 27 26 26 25 24 23 24 26 27 28 29 30 31 33 35 36 36 36 36 35 36 36 35 33 30 26 25 25 26 26
23 22 20 20 19 19 20 21 22 22 22 21 20 19 18 16 15 13 11 11 10 9 9 8 7 7 8 9 10 11 11 9 9 11 13 16 17 18 20 21 21 22 24 26 27 29 29 29 29 30 31 32 31 30 29 28 28 28 28 27 26 26 27 28 28 28 29 31 33 34 35 35 36 37 35 35 38 39 37 34 30 28 28 28 28
21 20 20 20 19 19 21 22 23 23 22 21 20 19 17 16 14 13 11 11 11 10 10 10 9 9 10 11 11 11 11 10 10 12 14 19 21 21 21 23 24 25 26 27 28 29 29 29 30 32 33 33 32 30 30 29 30 31 32 33 32 31 31 32 31 30 29 30 33 34 35 36 38 39 36 35 36 39 41 40 36 32 31 31 30
21 21 21 20 20 21 23 23 23 23 22 21 19 18 17 15 14 13 12 12 12 12 11 11 11 11 12 12 12 12 12 11 12 13 16 21 24 22 23 25 27 28 27 27 28 28 28 29 31 33 33 33 33 32 32 33 34 35 37 38 38 37 37 36 34 33 33 33 34 35 37 38 38 38 39 38 37 37 38 41 42 39 36 35 33
23 22 22 21 21 23 24 24 23 23 22 21 20 18 18 16 15 15 14 14 14 13 13 12 12 12 12 13 13 13 13 13 13 14 17 21 23 22 24 26 28 29 28 26 27 27 26 28 30 32 32 33 33 33 35 36 38 40 41 41 40 39 38 37 36 37 38 37 36 36 38 39 38 38 39 39 38 37 35 37 44 46 44 42 38
23 23 23 23 23 25 25 24 24 23 23 21 20 19 19 18 17 15 15 15 15 15 14 14 13 13 14 14 15 15 15 15 16 17 18 20 20 21 24 26 27 28 27 26 25 25 25 26 28 29 29 30 31 32 34 36 38 39 40 40 40 40 40 40 40 40 40 40 40 40 40 41 40 39 38 36 35 36 35 35 40 46 48 48 43
25 24 24 23 25 26 25 25 24 23 22 21 20 20 19 19 18 16 15 15 16 15 14 14 14 13 14 15 16 16 17 19 19 19 20 20 20 21 22 23 24 25 25 24 24 23 23 24 25 26 26 27 28 29 31 33 35 36 37 38 39 40 42 42 43 42 41 41 41 42 43 42 42 40 37 36 35 34 35 34 38 42 45 48 47
26 25 24 25 26 26 25 24 23 22 22 21 20 20 20 20 19 17 16 16 16 15 15 15 14 14 14 15 17 18 19 20 20 19 20 21 21 21 20 19 20 22 23 23 24 22 22 23 24 24 25 26 26 27 28 30 32 33 34 35 36 38 40 42 44 44 43 41 41 42 42 42 42 40 37 37 36 35 34 33 34 37 38 42 45
26 25 25 26 27 26 25 24 23 23 22 21 21 21 21 20 20 18 17 16 17 16 15 15 15 14 14 15 17 19 20 20 19 18 18 19 19 19 17 16 18 19 20 22 23 22 21 22 23 24 25 26 27 27 28 28 29 30 32 33 34 34 36 40 43 44 43 43 43 42 42 41 40 39 38 37 36 34 33 32 31 33 35 36 39
25 25 26 27 26 26 25 24 24 23 23 22 21 21 21 21 20 20 18 16 17 16 15 15 15 14 14 16 18 20 20 20 19 18 17 17 16 15 14 15 17 18 19 20 21 21 21 21 22 24 25 26 27 29 29 29 29 29 29 31 32 32 33 37 41 42 43 44 44 44 43 41 40 38 37 36 35 33 33 32 30 31 32 34 35
26 27 27 27 26 26 25 25 24 24 23 22 22 21 21 21 20 19 18 17 17 17 15 14 15 14 15 16 17 18 19 19 19 18 17 16 15 13 11 12 16 18 19 19 19 20 20 20 21 23 24 26 28 29 30 30 30 30 29 29 31 31 32 36 39 40 42 43 44 45 44 42 41 39 37 35 32 30 30 30 30 30 31 33 35
28 28 27 27 27 26 26 26 25 24 23 22 21 21 21 21 20 19 17 17 17 17 15 14 15 15 15 15 15 16 17 18 17 17 15 14 14 13 10 11 15 17 18 18 18 19 20 19 20 22 23 25 27 28 29 29 30 31 30 29 29 30 31 35 37 39 41 42 43 45 45 44 43 41 38 35 30 27 26 26 27 30 31 34 37
29 29 28 28 27 27 27 26 26 25 23 23 22 23 22 21 21 19 18 17 17 17 16 15 15 15 15 14 14 15 15 15 15 15 13 11 11 13 12 12 13 14 15 17 17 18 19 19 19 21 22 24 25 26 28 28 28 30 31 30 29 29 30 33 35 37 39 41 43 45 45 45 44 43 40 34 30 27 25 24 25 29 32 35 37
30 30 29 29 28 28 27 27 26 25 24 24 24 23 22 21 21 20 18 17 16 16 16 15 15 15 15 14 14 15 15 14 13 12 11 9 10 12 12 12 13 12 13 15 17 17 18 19 20 21 22 24 25 25 26 28 27 29 31 31 30 29 30 32 34 36 39 41 43 46 47 46 45 45 43 35 29 27 27 28 30 32 33 34 38
30 30 30 29 28 27 26 26 26 25 24 24 24 23 22 21 20 19 18 17 17 16 15 15 15 14 14 14 13 13 14 14 13 12 11 10 10 11 12 11 12 12 12 14 15 16 17 18 19 21 22 24 25 24 26 27 27 28 31 32 31 30 31 33 34 36 39 42 44 47 49 49 47 47 45 39 31 27 27 29 32 34 33 33 38
30 30 29 28 27 26 26 25 25 24 24 24 24 24 23 22 21 20 19 18 18 17 16 16 15 14 14 14 13 12 12 12 12 12 12 12 11 11 10 10 11 12 12 13 14 15 16 17 19 20 21 23 24 23 25 27 27 27 29 32 31 30 30 32 35 38 40 43 45 48 50 51 49 49 48 42 34 29 26 27 30 32 31 32 36
30 29 28 28 27 26 26 25 24 25 25 25 25 24 24 22 22 21 20 19 19 18 17 16 16 15 14 13 13 12 11 10 10 10 11 12 11 10 9 10 11 12 13 14 15 15 17 18 20 20 20 21 23 23 24 27 27 26 28 30 30 29 29 30 33 37 40 42 44 47 50 51 51 51 50 46 40 34 29 27 28 30 30 31 35
30 30 29 28 27 26 25 24 24 25 26 26 26 25 23 22 21 20 20 20 19 18 17 16 15 14 13 12 12 11 11 9 8 8 9 10 10 10 10 11 12 12 13 14 15 16 18 19 20 21 20 20 22 22 23 26 27 27 27 28 27 27 27 29 32 35 39 42 44 46 49 51 52 52 52 50 46 40 34 30 29 30 30 31 35
32 31 30 29 27 26 25 24 24 26 26 26 26 25 23 21 19 18 19 19 18 17 15 14 13 12 11 10 10 10 10 9 8 7 7 9 10 10 10 11 11 11 11 13 15 17 19 20 20 21 20 19 21 22 22 24 26 27 27 26 25 26 27 28 31 35 38 42 44 46 48 51 52 52 53 53 50 45 39 34 31 32 33 32 33
33 32 30 28 26 25 25 25 26 26 26 27 27 26 23 21 19 18 18 18 16 14 13 11 10 9 8 7 8 9 9 8 7 6 6 7 9 10 10 10 10 9 11 13 15 17 18 19 20 20 20 19 20 21 22 24 25 27 28 27 26 26 27 28 30 34 37 40 43 45 47 49 51 52 52 53 52 48 43 38 34 33 34 35 35
32 30 28 27 26 26 26 26 26 26 27 27 27 25 23 21 20 19 17 16 14 13 11 9 7 6 4 4 6 8 9 8 6 6 6 6 7 8 9 10 9 9 11 13 14 15 17 18 18 19 19 19 19 20 21 23 24 26 28 28 27 27 28 29 30 33 36 39 41 43 45 47 49 50 50 51 52 51 47 42 38 35 35 37 38
30 29 28 28 27 27 27 27 26 26 27 26 25 24 23 22 20 17 15 14 12 11 11 9 6 3 1 1 4 6 7 7 6 6 6 6 6 7 9 10 9 9 11 13 14 14 16 17 17 18 18 18 18 19 20 21 23 24 26 28 29 29 29 29 29 32 34 37 38 40 43 45 46 47 49 50 51 53 51 47 42 40 38 38 39
30 30 30 30 29 28 28 27 27 26 26 24 23 24 23 21 18 15 13 12 10 10 10 9 7 5 3 1 1 3 4 5 6 6 6 6 6 7 9 10 9 9 11 13 14 14 14 16 17 17 17 17 18 19 20 21 21 23 25 27 29 29 29 29 29 30 32 34 35 36 39 41 43 44 47 50 51 53 54 51 47 45 43 41 41
32 32 31 30 29 28 28 28 27 26 25 25 24 23 21 18 16 15 14 13 12 12 11 10 9 7 6 4 3 3 3 4 5 6 6 6 6 7 9 9 9 9 10 12 13 14 15 16 16 16 16 16 17 17 19 20 21 23 24 26 27 28 28 28 28 28 29 30 32 33 35 39 41 42 44 48 50 52 53 53 50 47 45 43 43
33 32 31 30 29 28 28 28 28 27 27 25 23 21 20 18 18 17 17 16 16 16 15 14 12 10 8 5 4 4 4 4 5 5 6 6 6 7 8 8 8 9 10 11 13 14 14 15 15 16 16 17 17 18 19 20 21 22 23 25 26 26 27 27 28 28 28 28 29 31 34 37 40 41 41 43 47 50 52 53 52 50 48 46 45
32 31 31 30 30 29 29 29 29 29 28 25 23 21 19 18 18 18 18 18 17 17 16 14 12 11 9 5 3 4 4 4 5 5 5 5 6 7 7 7 7 9 10 11 13 13 13 14 15 16 17 18 19 20 21 21 22 22 23 24 25 26 27 28 28 29 28 28 28 29 32 35 38 40 40 40 42 46 49 51 51 52 51 50 48
32 32 32 31 31 32 32 31 30 29 27 26 24 23 21 19 17 17 17 17 16 14 12 11 10 10 9 7 4 4 5 5 5 5 5 5 5 6 6 7 7 9 9 11 12 13 14 14 15 16 17 18 19 21 21 22 23 23 23 23 24 25 27 28 28 27 27 28 28 28 29 32 35 38 40 40 40 41 45 48 49 50 51 52 50
35 34 33 33 34 34 33 32 30 28 26 25 25 24 23 22 19 17 16 16 14 11 10 10 10 10 9 7 6 5 5 5 5 5 5 4 4 5 5 6 7 8 8 9 11 12 14 14 14 15 16 17 18 20 20 21 22 23 23 23 24 24 26 27 27 27 27 27 27 27 28 29 32 34 36 38 39 39 40 43 46 48 48 49 49
37 36 34 35 35 33 32 31 29 27 26 25 24 23 23 22 21 19 18 16 14 11 10 10 10 9 8 8 6 5 5 5 5 5 4 4 4 4 4 5 6 7 8 9 9 10 12 14 14 14 15 16 16 18 19 20 21 21 22 23 24 24 25 26 26 26 26 27 27 27 26 26 28 30 31 33 36 37 37 38 41 44 46 46 45
37 36 36 36 34 31 30 28 27 27 26 24 23 22 21 21 20 20 18 16 14 12 11 10 9 8 7 6 6 5 5 5 5 4 4 3 3 2 2 3 5 6 7 9 9 9 9 12 14 14 15 15 16 16 17 18 19 20 21 22 23 24 24 24 25 25 26 26 26 26 26 25 25 26 28 30 32 34 36 35 35 38 41 43 43
36 36 36 36 33 29 28 27 26 26 25 23 21 20 19 18 18 18 18 16 14 13 11 9 9 8 7 6 6 6 5 5 4 4 3 3 2 2 1 2 3 4 6 8 10 9 8 10 13 13 14 14 15 15 16 17 18 19 20 20 22 22 23 23 24 25 26 26 26 26 26 26 25 24 25 27 29 31 33 34 34 33 35 38 40
35 35 35 34 30 28 28 26 24 24 23 22 20 19 19 18 16 15 14 14 13 12 11 10 9 8 7 6 6 5 5 4 4 3 2 2 2 2 1 1 2 3 4 6 9 9 7 8 11 13 13 13 14 15 15 16 16 17 19 20 21 22 23 23 24 25 25 25 26 25 25 26 26 25 23 24 25 27 29 31 33 32 31 32 34
34 35 34 31 29 28 27 24 22 22 22 21 20 19 18 17 15 13 12 12 12 10 9 8 8 7 5 5 5 4 4 4 3 2 2 1 1 1 1 0 1 3 4 6 9 9 7 7 10 12 13 12 13 14 15 15 15 16 17 18 20 21 22 23 23 24 24 25 25 25 24 25 25 25 24 23 22 23 23 25 28 31 30 29 29
34 35 34 30 27 27 24 22 21 22 22 20 18 17 16 14 13 12 11 10 11 10 7 7 7 5 3 3 3 3 2 2 2 2 1 1 0 1 1 2 2 3 4 7 10 10 8 8 9 11 12 12 12 13 14 14 15 15 16 17 18 19 20 21 22 22 23 24 24 24 24 24 24 25 25 23 21 20 19 20 22 25 27 27 25
34 36 33 29 26 24 21 21 21 21 20 17 14 13 13 13 12 11 9 8 10 9 8 7 6 4 2 2 3 1 0 1 2 3 2 1 1 3 4 4 4 4 5 8 11 11 10 9 10 11 12 12 12 12 13 14 14 15 16 16 16 17 18 19 20 21 21 22 23 23 23 23 23 23 24 23 22 19 17 17 18 20 23 25 25
33 35 32 28 25 24 22 21 20 19 18 16 14 13 14 13 11 10 8 8 9 9 8 7 6 4 3 3 4 3 2 4 4 4 5 4 4 5 7 8 7 6 6 9 11 11 10 10 12 12 12 12 12 12 13 13 14 14 15 16 16 16 17 17 18 19 20 21 22 22 22 23 22 22 22 22 22 21 18 16 16 17 18 21 22
34 34 30 28 27 26 24 24 23 22 21 20 19 18 17 16 15 14 11 10 10 10 11 11 8 5 4 5 7 6 5 7 8 8 8 8 7 7 7 9 10 8 8 10 12 11 11 12 13 14 14 13 13 14 14 15 15 15 16 16 17 17 17 17 17 17 18 19 20 21 21 21 22 21 21 20 21 21 19 17 16 15 14 15 18
33 33 29 27 28 27 25 25 26 25 24 23 21 18 17 17 18 17 15 13 12 12 13 13 10 7 6 7 8 8 9 10 11 11 11 10 10 11 9 9 10 10 10 11 12 12 13 14 15 16 17 16 16 17 17 17 17 17 17 18 18 18 19 18 17 16 16 17 18 19 19 20 20 21 20 20 19 19 19 17 16 14 12 11 13
34 34 29 27 28 27 25 26 26 25 25 23 19 16 16 17 18 18 17 15 12 11 12 13 11 10 9 9 9 9 10 11 12 12 12 11 12 13 12 10 9 11 12 12 12 12 13 15 17 19 20 19 18 18 18 16 17 17 18 19 19 19 20 20 19 17 16 17 18 18 19 19 19 19 19 19 18 18 18 17 15 14 13 11 10
33 34 30 28 29 27 25 25 24 24 25 24 20 17 16 15 16 17 18 16 13 12 13 12 12 11 10 9 9 10 10 11 13 13 13 11 10 10 10 9 8 9 11 12 13 14 15 16 18 20 21 21 20 18 16 15 16 17 18 19 20 20 20 20 21 20 19 18 18 19 19 19 19 18 18 18 17 17 17 16 15 14 13 12 10
32 32 29 28 27 24 22 22 21 22 24 24 20 17 16 14 13 14 16 16 15 15 15 14 12 13 12 11 11 11 11 12 13 13 11 9 7 6 6 6 7 8 10 13 14 15 15 16 18 20 22 22 20 17 14 14 16 17 18 19 20 20 19 20 20 21 21 20 20 20 20 20 20 19 18 18 17 16 16 16 15 14 13 12 11
31 32 29 29 27 22 19 18 18 19 23 24 20 17 16 14 13 12 13 13 14 15 14 12 10 11 12 12 12 12 12 12 12 12 10 8 7 7 7 7 8 10 12 14 14 14 16 18 19 21 22 21 18 15 14 15 17 19 20 20 20 20 20 19 19 20 21 21 22 22 22 21 21 20 20 19 18 17 16 16 15 14 14 12 12
29 32 30 29 28 23 19 17 16 18 22 22 20 19 19 18 17 17 16 15 14 13 12 11 9 9 9 9 10 10 11 11 10 10 10 9 9 9 9 10 11 12 14 15 15 16 18 20 20 21 21 19 16 15 16 18 19 20 21 21 21 21 20 19 20 20 20 21 22 23 23 23 23 22 21 20 19 18 18 17 15 15 14 13 12
23 29 31 30 29 25 22 20 19 19 20 20 19 19 20 20 20 20 19 18 16 15 13 12 11 10 9 10 11 11 11 12 12 11 11 11 11 11 11 12 13 14 14 15 17 18 19 20 20 21 21 20 19 19 20 21 21 22 22 22 22 21 20 19 20 21 21 21 22 23 24 24 24 23 23 22 21 20 19 18 17 16 15 14 13
17 22 27 30 30 27 24 23 22 21 19 19 18 17 17 18 17 16 15 15 16 16 15 14 13 13 13 13 13 13 13 13 13 13 13 13 13 13 14 15 15 15 15 16 18 19 20 21 22 23 23 23 23 23 23 23 23 22 22 22 22 22 21 21 21 22 22 22 22 23 23 23 24 24 24 23 23 22 21 20 19 18 17 16 15
15 16 20 25 29 29 26 24 24 22 19 18 17 16 15 15 15 14 12 11 11 12 13 13 13 13 13 12 12 13 13 12 12 11 12 12 13 14 16 17 18 18 19 20 20 21 21 22 23 24 24 25 25 25 25 26 25 25 24 23 23 23 22 22 22 22 22 22 22 22 22 22 23 24 24 24 24 23 22 22 21 20 19 18 17
16 15 15 16 21 24 23 21 20 19 17 17 17 16 15 15 15 15 14 14 13 12 12 12 12 12 12 12 12 12 12 12 13 13 13 14 14 15 17 19 20 19 19 19 19 18 18 20 22 24 24 24 25 25 25 26 26 26 25 24 23 23 23 23 23 23 23 23 23 23 23 22 22 23 23 24 24 24 24 24 23 23 22 21 19
19 17 15 14 15 17 18 17 17 17 17 17 16 16 16 16 16 15 15 16 16 16 15 15 14 14 14 14 13 13 14 15 15 15 15 15 14 15 15 16 17 17 18 18 18 18 20 22 25 26 26 24 23 24 25 26 27 27 26 25 25 24 23 23 23 23 23 23 23 24 25 25 25 24 24 24 24 25 25 25 25 24 24 23 22
Wind_Direction
174 175 173 172 168 162 163 163 162 160 158 157 152 146 144 145 146 149 151 152 154 154 153 154 149 128 105 93 86 87 101 110 105 95 88 81 78 68 49 45 46 43 39 37 36 36 35 35 33 31 28 25 22 20 17 15 12 9 6 2 3 1 353 345 330 321 325 331 332 334 336 335 334 334 331 326 323 315 302 293 291 289 280 272 269
167 167 161 157 156 159 162 162 161 163 162 157 150 147 148 148 149 153 155 154 154 156 159 154 139 121 111 105 103 110 118 120 113 101 89 80 73 63 52 51 50 47 46 45 44 44 42 39 36 32 29 26 24 20 17 15 12 8 8 7 6 6 1 354 344 332 327 332 337 336 336 336 336 337 335 330 326 322 315 303 294 292 285 276 271
158 157 155 154 156 158 159 158 159 159 155 150 147 149 151 150 153 158 157 154 153 153 149 140 131 125 119 114 112 116 122 119 110 102 94 82 70 64 60 58 54 52 53 52 50 49 44 40 36 31 29 27 25 23 18 15 13 9 9 12 9 4 2 359 352 341 331 333 338 337 335 337 336 334 332 328 324 321 320 314 303 294 290 285 277
158 158 157 157 158 159 157 156 154 149 145 145 147 150 152 152 154 157 154 152 152 148 141 136 133 126 121 118 113 113 117 114 105 99 94 84 73 70 68 63 60 59 58 56 53 50 46 41 35 31 31 30 28 26 22 18 17 15 14 14 10 2 359 357 352 346 337 334 336 334 333 334 333 332 331 330 327 325 323 319 311 301 293 288 282
165 165 164 162 162 162 159 155 151 147 146 149 151 152 152 153 153 154 153 151 148 144 140 135 132 127 121 116 112 111 113 111 103 97 91 85 79 76 72 67 65 64 60 57 54 52 48 43 39 36 34 33 32 30 27 25 24 23 20 17 12 4 358 354 350 348 344 337 332 330 330 330 330 332 334 331 328 328 327 323 317 310 301 291 285
167 166 166 165 165 162 157 153 151 152 153 154 154 154 154 154 153 151 149 147 144 139 136 132 127 122 118 112 112 114 118 116 107 97 89 85 82 78 73 70 67 64 60 58 57 55 53 48 44 43 40 38 37 34 31 29 28 26 24 20 16 10 4 360 355 351 347 340 335 332 332 332 332 333 334 331 329 329 328 326 321 316 311 303 293
164 161 163 164 163 159 155 154 154 155 155 154 154 154 152 151 149 146 145 144 141 137 133 128 121 116 113 110 111 116 122 120 109 96 90 89 86 79 73 70 66 62 59 59 59 59 57 54 50 47 44 41 38 35 33 32 31 31 29 25 21 16 11 7 3 -0 356 350 346 342 340 338 336 334 333 332 330 329 328 325 321 320 319 315 306
165 163 165 165 161 157 156 156 156 156 156 155 154 153 150 148 146 145 146 143 139 133 128 122 117 113 111 107 109 116 122 118 105 95 92 93 91 80 71 66 62 59 57 57 59 60 59 56 54 51 47 43 40 38 37 36 36 34 32 28 24 20 16 13 10 8 5 360 354 351 348 345 342 337 334 334 330 327 326 322 319 320 320 319 314
164 165 166 164 159 156 156 156 158 158 158 158 157 155 153 151 148 147 147 143 135 129 124 118 114 110 108 106 109 116 117 111 101 93 91 93 92 81 69 62 57 54 53 53 56 58 57 56 56 54 51 47 44 42 41 39 36 32 29 27 24 21 18 16 15 11 7 3 359 356 353 350 347 342 337 334 329 324 322 319 314 316 317 317 315
162 164 165 162 158 158 158 159 161 160 160 160 159 158 156 153 151 150 148 140 131 125 120 115 110 106 105 106 110 114 112 107 100 94 89 87 85 76 65 58 53 48 47 49 52 52 51 52 53 53 52 49 45 42 40 37 35 31 27 23 20 19 17 16 16 14 8 3 359 357 355 351 350 347 339 332 328 324 321 318 315 314 316 315 314
164 167 166 161 158 159 161 162 162 160 160 160 160 160 158 156 155 151 145 136 128 122 117 112 105 100 100 103 107 110 110 107 102 95 88 81 75 68 61 54 50 46 44 47 49 48 45 45 47 48 48 46 43 40 37 33 32 32 29 24 19 17 15 14 14 13 9 3 1 359 355 351 350 348 340 333 329 325 322 320 318 316 314 312 311
168 169 166 161 160 162 163 162 161 159 159 159 159 160 159 158 155 150 144 136 128 121 114 108 102 96 97 102 107 111 111 109 104 97 88 80 72 66 59 53 51 47 44 45 47 46 42 41 43 45 43 41 38 34 32 31 31 31 30 27 22 18 16 15 12 11 9 4 2 0 356 351 349 347 342 335 329 326 326 326 325 323 318 314 309
170 167 163 161 163 163 163 161 159 158 159 160 161 161 159 158 155 150 145 137 127 119 113 107 101 97 98 105 111 113 111 107 103 97 91 84 79 71 58 53 53 49 43 43 44 42 39 38 40 42 41 38 36 33 30 30 30 29 28 26 23 19 16 14 13 12 10 5 2 1 359 355 350 347 344 338 332 330 331 331 332 331 325 318 310
165 161 161 162 163 161 161 160 158 158 160 162 163 161 160 157 153 150 146 138 128 120 113 109 103 99 100 108 116 116 112 107 103 98 93 90 89 84 65 53 53 49 43 40 41 39 36 35 37 40 39 36 34 31 28 27 25 24 24 23 21 18 14 12 12 12 10 7 3 2 2 -0 355 351 347 343 338 335 334 336 338 335 325 315 308
159 160 162 162 161 160 160 160 160 160 162 164 162 159 157 154 150 148 144 138 131 124 119 115 107 102 101 108 117 118 114 112 109 105 103 101 99 97 84 62 52 45 38 36 38 39 36 35 36 38 37 35 32 28 25 23 22 20 19 19 19 17 13 11 12 12 11 8 5 4 3 3 1 358 353 348 346 341 335 335 338 335 326 317 311
160 162 161 161 160 161 162 162 162 163 164 164 160 156 156 153 150 147 144 139 134 128 125 120 112 107 103 106 113 114 113 115 115 116 117 112 103 98 93 80 62 47 36 33 36 39 37 36 36 36 36 35 31 28 24 21 19 18 16 15 16 16 14 12 13 16 16 12 8 8 7 5 5 4 360 354 350 346 338 335 340 340 335 328 323
162 162 162 163 164 166 167 167 166 167 166 163 160 158 157 154 149 146 142 137 130 126 124 121 117 113 108 106 107 107 108 110 112 115 116 107 97 93 90 86 76 60 42 35 39 41 39 37 36 35 36 34 30 26 23 19 17 17 14 11 12 13 13 12 14 19 21 17 13 12 11 10 9 8 6 1 355 353 351 351 353 351 344 337 332
165 165 165 167 169 170 172 173 171 169 166 163 161 159 156 152 147 144 140 135 130 125 124 122 119 116 112 107 104 101 103 105 105 106 106 102 96 90 86 85 82 74 58 47 46 46 43 40 38 35 34 33 28 25 24 19 17 17 13 9 10 12 11 11 15 19 21 19 17 16 13 13 12 11 10 7 2 0 3 3 360 355 349 342 338
169 170 170 171 173 173 174 175 173 169 166 164 160 156 152 148 145 142 139 136 132 129 128 125 120 116 112 108 104 100 99 101 102 101 99 97 92 85 83 82 79 75 69 61 56 51 47 44 41 36 34 33 27 24 25 22 17 18 14 9 9 11 10 13 17 18 18 18 17 16 14 13 13 13 13 12 9 7 9 9 5 359 351 347 347
171 172 173 173 174 174 175 175 172 169 166 163 158 154 151 148 145 143 141 137 133 130 128 124 118 112 108 107 105 102 97 95 95 95 94 92 89 85 81 75 69 66 65 62 57 53 49 46 42 36 33 33 29 25 27 25 19 17 15 11 10 10 10 17 21 19 19 19 17 16 16 14 14 15 15 15 14 12 12 14 13 7 356 351 355
173 173 175 175 175 175 176 175 171 168 167 164 158 155 151 148 147 146 144 139 134 131 126 119 112 105 100 99 99 98 96 92 87 86 87 89 89 84 77 70 65 61 61 60 56 52 47 45 42 36 32 33 31 27 27 27 22 19 17 14 12 10 12 19 24 23 22 21 20 18 17 16 16 16 16 17 17 15 15 18 20 19 11 1 1
177 177 177 177 177 176 176 175 171 169 168 164 158 152 148 149 149 147 144 139 134 129 122 114 107 97 87 84 87 88 88 85 81 79 81 86 88 82 73 68 64 61 63 62 58 53 47 42 39 35 30 32 33 30 28 28 26 22 19 15 13 13 15 21 26 26 25 24 23 21 19 18 17 16 16 17 17 17 17 19 23 26 25 20 14
181 180 179 179 179 176 175 173 171 170 168 164 159 153 151 153 153 150 147 141 132 122 113 105 99 91 79 74 77 80 78 76 74 72 69 73 79 79 74 70 64 61 65 65 60 55 48 41 37 33 30 32 35 34 31 30 28 25 21 17 16 15 16 20 27 29 26 25 24 23 22 21 19 18 17 17 17 18 19 20 24 28 31 32 32
184 182 181 180 177 175 173 172 172 171 168 166 163 159 156 155 153 149 143 133 123 116 111 108 101 95 84 66 68 75 75 72 71 72 70 68 72 75 74 72 66 63 67 68 64 58 50 41 35 33 30 31 35 37 35 32 30 27 23 19 17 18 18 21 27 30 28 26 25 24 24 24 22 20 20 20 20 21 21 22 25 31 35 37 38
183 181 180 178 175 173 172 171 172 171 169 168 165 157 151 147 145 140 132 124 120 120 124 130 134 138 142 46 59 69 71 73 75 78 81 77 72 73 74 74 73 72 73 71 65 60 53 44 37 35 33 30 31 36 37 34 30 29 26 21 18 19 21 22 27 30 29 27 25 24 25 26 24 23 23 23 24 24 24 25 27 31 37 41 43
179 178 177 175 174 174 173 171 171 170 168 165 158 149 145 144 141 136 130 129 132 136 144 156 164 173 203 229 94 83 74 76 80 80 82 81 77 76 74 74 78 79 77 73 67 60 54 47 40 36 34 32 30 32 34 32 29 29 30 26 21 20 21 24 28 30 30 28 26 25 25 27 27 25 25 25 26 27 27 27 28 30 34 39 44
176 176 175 174 175 175 173 170 168 165 161 157 152 149 148 147 146 145 146 150 157 160 166 175 176 180 202 212 169 141 114 92 91 90 87 84 83 83 80 79 83 81 76 71 65 56 49 43 36 31 32 34 34 34 35 32 27 25 28 30 26 23 22 24 27 31 31 29 28 26 27 29 29 27 26 25 26 28 30 30 31 31 33 37 42
177 175 174 175 175 174 171 167 163 159 156 154 154 154 155 157 160 163 165 169 174 175 178 181 181 187 202 201 154 146 145 120 109 105 99 96 96 93 91 89 88 82 73 65 59 51 44 38 32 27 29 32 34 34 35 35 30 23 23 27 27 25 24 25 25 28 31 32 30 28 29 30 31 29 28 27 26 27 30 32 33 34 35 37 40
177 174 173 173 172 168 165 163 161 159 158 159 160 161 164 169 172 172 174 178 183 185 188 190 191 197 209 208 151 145 156 143 128 118 109 107 105 98 96 93 82 74 67 61 54 48 41 34 29 25 25 27 29 30 29 31 31 26 22 22 23 23 24 25 25 25 28 30 30 30 29 30 31 31 31 29 28 27 29 31 34 35 37 39 40
173 171 172 171 167 165 164 164 164 165 166 167 168 168 170 175 180 183 184 186 190 193 197 201 206 211 215 213 188 167 164 154 143 133 123 122 116 106 102 93 76 66 62 57 49 41 35 29 25 24 23 22 25 26 24 24 26 26 23 22 21 20 20 23 24 24 26 29 30 30 30 29 30 32 33 32 30 28 29 30 32 34 36 39 40
170 170 172 170 167 166 167 168 169 171 173 174 175 174 174 176 182 188 192 193 196 198 193 190 194 199 200 196 185 174 167 158 150 142 134 129 117 105 98 86 71 60 55 53 47 39 30 22 19 21 22 20 21 23 22 21 23 23 22 22 22 19 19 20 19 19 22 27 28 29 30 30 30 31 32 33 31 29 29 29 31 33 35 37 38
172 173 173 171 168 170 173 173 174 176 178 181 182 182 182 182 184 188 195 198 200 197 187 179 179 182 183 181 179 175 170 165 157 148 141 130 115 109 101 87 71 54 43 39 38 35 26 15 12 16 18 17 19 21 19 20 21 20 20 22 22 20 19 20 17 14 17 23 26 28 30 31 31 31 31 32 32 31 29 29 29 31 33 35 36
176 176 174 169 168 174 178 178 180 183 184 185 186 186 186 188 186 185 188 190 190 186 180 175 174 174 175 176 176 175 174 169 160 153 149 141 133 136 126 97 71 49 34 24 21 25 20 8 5 10 14 14 16 17 18 19 19 18 20 22 22 19 20 21 18 13 14 18 22 26 28 29 31 31 31 32 34 33 31 30 29 30 32 33 34
180 178 173 168 170 178 184 185 187 189 188 187 185 183 184 186 185 183 181 179 177 174 169 165 164 166 168 172 176 178 176 169 159 156 161 165 164 170 161 111 74 51 31 13 7 11 11 1 358 3 9 11 10 12 16 17 16 15 17 20 20 19 18 20 21 17 14 14 17 21 24 26 28 31 31 31 34 36 34 32 30 30 31 32 33
181 177 170 169 174 183 188 190 189 187 185 182 177 174 173 172 171 172 172 168 163 156 152 151 153 154 158 163 166 169 170 162 152 155 171 181 186 194 192 143 78 54 33 6 354 355 357 353 351 356 3 7 6 7 11 14 13 13 14 16 18 18 15 16 20 19 15 13 14 17 20 22 24 28 30 30 32 35 35 34 33 33 32 31 31
180 174 169 173 180 187 191 192 185 177 174 171 166 164 164 163 161 159 159 161 158 149 143 145 146 143 147 154 153 156 165 165 159 163 172 172 183 196 195 216 11 35 28 353 334 336 345 345 342 348 356 1 3 4 6 8 10 11 11 12 15 15 14 14 16 17 16 15 14 14 16 18 20 22 24 28 32 34 34 34 34 35 34 32 29
179 173 171 176 184 188 190 187 177 168 165 162 161 162 163 162 163 163 162 166 167 162 156 156 149 140 149 171 165 154 158 175 186 189 158 80 307 279 283 301 328 357 2 338 323 326 337 339 335 340 349 355 359 359 359 0 3 6 8 10 12 12 11 11 12 13 14 14 14 13 14 16 18 18 17 21 28 33 32 30 30 32 34 34 30
179 173 172 177 182 182 179 174 168 164 163 163 168 175 175 173 173 172 171 177 180 180 180 177 166 149 154 206 216 207 290 283 253 243 250 265 308 324 324 319 318 325 328 320 317 320 327 331 331 335 342 349 352 352 352 353 355 357 359 2 5 6 6 6 8 9 10 11 13 13 12 13 17 18 16 16 20 26 27 25 23 25 30 34 34
178 173 172 177 177 174 173 174 171 168 168 174 183 186 183 182 183 186 192 200 198 198 203 204 195 176 170 216 245 265 312 322 302 279 270 271 288 313 320 320 320 313 301 303 311 316 319 321 326 331 335 340 344 344 344 345 346 348 351 352 354 357 359 360 2 4 5 7 8 9 9 11 13 16 17 16 16 18 19 19 19 20 23 29 34
177 172 173 176 176 175 178 180 178 176 176 182 189 194 195 195 194 195 204 213 213 218 227 227 220 205 198 229 257 276 296 310 312 308 298 290 285 287 300 314 318 311 298 299 308 313 311 311 319 326 328 332 338 340 339 339 339 340 343 344 345 347 349 353 357 359 359 1 2 3 4 6 7 10 14 16 15 14 14 14 15 16 18 22 28
176 171 172 176 178 179 181 183 183 182 181 183 190 196 198 196 192 193 200 210 214 219 225 225 223 225 229 240 259 276 287 297 307 313 310 300 287 278 279 291 301 301 301 306 310 313 311 310 316 324 328 332 337 340 340 339 338 338 339 340 342 342 342 343 348 353 354 356 356 356 358 0 1 3 6 10 12 12 12 12 12 12 12 14 18
176 172 173 179 182 182 184 186 188 187 184 183 189 195 193 192 193 196 200 207 212 217 217 216 219 228 235 241 254 269 283 293 302 307 308 301 288 276 270 271 279 286 292 301 307 310 309 309 313 320 326 331 337 339 339 337 337 338 339 339 339 340 338 338 341 346 348 349 349 350 351 353 354 356 357 1 5 6 7 9 11 11 9 4 -0
178 175 176 181 185 186 188 190 194 195 190 185 185 190 194 198 203 203 201 204 211 221 224 224 225 228 232 242 255 267 280 290 295 300 305 302 288 274 265 264 272 277 283 295 304 305 303 303 308 315 320 325 331 337 340 340 341 343 343 340 337 336 335 334 336 339 341 340 341 342 343 343 345 347 348 350 354 358 360 1 4 7 8 3 353
181 178 179 182 185 187 190 192 197 200 195 187 183 189 200 210 213 209 205 206 209 217 226 232 234 233 234 242 252 261 271 281 287 296 305 306 297 288 280 274 275 277 282 293 300 299 297 300 303 308 313 319 324 329 336 343 346 346 344 341 338 336 334 332 332 334 336 335 335 337 337 337 337 338 339 340 343 346 349 351 353 356 -0 1 357
183 181 182 185 186 187 188 190 192 194 191 186 185 189 198 207 211 208 209 213 217 222 229 237 242 241 237 238 243 253 264 275 283 291 298 298 296 300 300 292 285 286 291 295 295 293 293 295 298 303 310 317 320 322 325 333 340 341 339 336 334 333 333 332 331 331 331 330 330 330 331 331 330 331 331 333 333 335 337 341 343 344 346 349 352
187 187 187 187 187 188 190 187 183 183 185 187 192 196 199 204 208 208 210 216 221 227 234 242 248 250 247 246 251 260 270 278 284 288 292 292 292 295 298 296 292 290 292 294 292 290 292 295 299 303 309 312 314 316 319 323 328 331 332 330 329 327 327 328 329 330 329 327 325 324 324 324 325 325 325 326 326 327 327 329 331 333 334 334 337
189 193 195 193 189 188 189 188 184 184 188 194 201 207 211 213 215 216 218 221 224 228 236 242 247 252 257 261 266 272 278 282 284 286 287 289 292 293 293 292 290 289 289 291 292 293 294 296 298 301 303 303 302 304 308 314 320 323 323 323 323 323 321 320 323 327 327 325 323 321 319 319 320 321 320 320 320 321 321 321 322 323 324 324 324
188 194 200 201 197 192 188 187 189 192 198 203 208 215 221 224 226 227 227 225 222 223 228 233 240 246 250 255 261 266 271 276 279 280 280 282 286 287 285 285 286 287 287 291 296 298 297 296 296 299 301 303 301 300 302 307 312 316 317 317 317 317 315 314 317 321 323 323 323 321 320 319 318 318 316 315 315 316 316 316 316 317 316 316 316
190 190 195 201 203 202 198 195 194 195 199 206 213 220 226 227 227 230 232 232 230 230 232 237 242 246 249 254 260 264 268 272 273 273 274 277 282 285 285 286 287 288 289 292 298 301 300 298 297 297 299 302 305 305 305 306 308 310 312 314 314 313 311 310 312 316 320 322 323 322 320 320 319 317 315 313 312 311 311 310 311 312 311 310 310
197 192 187 189 195 200 200 199 200 201 203 207 213 222 228 230 229 229 231 235 240 242 244 247 250 254 260 267 269 270 272 273 273 272 274 277 281 284 286 287 288 288 289 291 293 296 298 299 300 300 302 304 306 307 307 308 308 308 308 308 309 310 308 306 307 311 314 317 319 319 317 316 316 315 315 313 310 308 307 307 307 307 307 307 306
200 198 196 193 194 198 200 200 203 208 210 211 215 221 227 230 232 233 233 234 235 236 238 243 247 250 257 264 267 268 269 271 273 273 273 273 273 277 280 284 286 289 291 292 293 296 301 306 308 308 307 305 304 305 306 307 307 307 306 304 304 305 304 303 304 306 307 310 314 314 312 310 309 310 311 311 309 307 306 305 304 304 303 303 303